Weather Roundup
Issued by NWS Springfield, MO

Home | Current Version | Previous Version | Text Only | Print | Product List | Glossary On
Versions: 1 2 3 4 5 6 7 8 9 10 11 12 13 14 15 16 17 18 19 20 21 22 23 24 25 26 27 28 29 30 31 32 33 34 35 36 37 38 39 40 41 42 43 44 45 46 47 48 49 50
000
NZUS99 KSGF 232307
HRRSGF

HOURLY WEATHER
NATIONAL WEATHER SERVICE SPRINGFIELD MO
600 PM CDT SAT JUL 23 2016

......SGF CWA......

CITY           SKY/WX    TMP DP  RH WIND       PRES   REMARKS
SPRINGFIELD    SUNNY     97  66  36 VRB7      29.91F HX 100
JOPLIN         MOSUNNY   94  74  52 VRB6      29.89F HX 104
WEST PLAINS    CLOUDY    92  72  51 SE6       29.95F HX  99
ROLLA          SUNNY     95  73  48 CALM      29.90F HX 104
OSAGE BEACH    SUNNY     95  76  53 SE5       29.90F HX 108
BRANSON        MOSUNNY   95  72  46 CALM      29.93F HX 103

......SURROUNDING SGF CWA......

CITY           SKY/WX    TMP DP  RH WIND       PRES   REMARKS
CHANUTE        SUNNY     95  70  44 S12       29.86F HX 101
PARSONS        SUNNY     97  70  41 S8        29.87F HX 103
COFFEYVILLE    SUNNY    100  68  35 S10       29.85F HX 105
EMPORIA        CLOUDY    92  70  48 SE8       29.86F HX  97
GROVE OK       SUNNY     97  72  44 S6        29.89F HX 105
ROGERS AR      MOSUNNY   94  74  52 E5        29.94F HX 104
SILOAM SPRINGS SUNNY     97  70  41 SW5       29.94F HX 103
HARRISON AR    SUNNY     94  72  48 E6        29.93F HX 102
NEAR YELLVILLE SUNNY     97  72  44 CALM      29.88R HX 105

......KANSAS AND MISSOURI......

CITY           SKY/WX    TMP DP  RH WIND       PRES   REMARKS
KANSAS CTY INT CLOUDY    87  76  69 S7        29.87F HX  97
DOWNTOWN KC    PTSUNNY   94  72  48 SW9       29.85F HX 102
COLUMBIA       SUNNY     94  76  55 S6        29.89F HX 106
SEDALIA        SUNNY     95  75  52 S8        29.90F HX 107
ST JOSEPH      CLOUDY    89  76  65 S15       29.83F HX 100
ST LOUIS       MOSUNNY   94  73  50 SE8       29.90F HX 103
SPIRIT OF STL  SUNNY     93  75  55 S6        29.88F HX 104
KIRKSVILLE     CLOUDY    91  76  61 S8        29.90F HX 103
WICHITA        PTSUNNY  100  61  27 S15G21    29.81F HX 101
TOPEKA         CLOUDY    91  75  59 SE7       29.85F HX 101
OLATHE         PTSUNNY   91  72  53 S7        29.89F HX  98

......TENNESSEE......

CITY           SKY/WX    TMP DP  RH WIND       PRES   REMARKS
MEMPHIS        CLOUDY    86  74  67 CALM      29.93S HX  94
NASHVILLE      PTSUNNY   90  69  50 CALM      29.93F HX  94

......ARKANSAS.......

CITY           SKY/WX    TMP DP  RH WIND       PRES   REMARKS
FAYETTEVILLE   SUNNY     93  74  53 S7        29.92F HX 103
FT SMITH       PTSUNNY   96  69  41 SE12G20   29.87S HX 102
LITTLE ROCK    CLOUDY    80  72  76 SE15      29.91S THUNDER

......OKLAHOMA.......

CITY           SKY/WX    TMP DP  RH WIND       PRES   REMARKS
TULSA          MOSUNNY   99  68  36 SW13G18   29.84F HX 104
PONCA CITY     SUNNY    101  64  29 S10G20    29.82F HX 104
MCALESTER      SUNNY     98  72  42 S3        29.88F HX 107
OKLAHOMA CITY  MOSUNNY   98  64  32 S9        29.87F HX 100

......IOWA............

CITY           SKY/WX    TMP DP  RH WIND       PRES   REMARKS
DES MOINES     MOSUNNY   92  77  61 S10       29.81F HX 105
QUAD CITIES    CLOUDY    88  80  77 SE10      29.87F HX 104

......ILLINOIS........

CITY           SKY/WX    TMP DP  RH WIND       PRES   REMARKS
QUINCY         SUNNY     92  80  68 S7        29.89F HX 110
CHICAGO        CLOUDY    87  74  64 SW3       29.92F HX  95




USA.gov is the U.S. government's official web portal to all federal, state and local government web resources and services.